Date String (YYYY-MM-DD hh:mm:ss) UTC,Instrument flags,Ambient pressure (hPa),Sample flow (lpm),Bypass flow (lpm),Sample temperature (°C),Ambient temperature (°C),ASC tube jacket temperature (°C),LED temperature (°C),Box temperature (°C),Sample RH (%),Span deviation,Mass concentration (μg/m³),Mass concentration (μg/m³),Mass concentration (μg/m³)
DateTimeUTC,F1_M11,P_M11,Q1_M11,Q2_M11,T1_M11,T2_M11,T3_M11,T4_M11,T5_M11,U1_M11,ZSPAN_M11,X0_M11,X2_M11,X1_M11
2022-07-29 23:00:00,,0829.2,5.00,0.00,29.6,28.5,00.0,38.3,31.6,28.5,0000.0,0004.01,0003.42,0003.30
2022-07-29 23:01:00,,0829.2,4.99,0.00,29.6,28.0,00.0,38.3,31.5,29.1,0000.0,0003.97,0003.41,0003.29
2022-07-29 23:02:00,,0829.2,5.00,0.00,29.5,27.4,00.0,38.3,31.3,28.8,0000.0,0004.00,0003.42,0003.28
2022-07-29 23:03:00,,0829.2,5.01,0.00,29.5,27.2,00.0,38.2,31.2,29.2,0000.0,0004.07,0003.45,0003.30
2022-07-29 23:04:00,,0829.1,4.99,0.00,29.4,27.2,00.0,38.2,31.1,29.9,0000.0,0004.13,0003.47,0003.31
2022-07-29 23:05:00,,0829.1,5.00,0.00,29.4,27.3,00.0,38.2,31.2,30.3,0000.0,0004.19,0003.49,0003.30
2022-07-29 23:06:00,,0829.1,5.01,0.00,29.4,27.5,00.0,38.2,31.2,29.4,0000.0,0004.29,0003.50,0003.31
2022-07-29 23:07:00,,0829.1,5.00,0.00,29.4,27.7,00.0,38.2,31.3,29.6,0000.0,0004.45,0003.54,0003.32
2022-07-29 23:08:00,,0829.1,5.01,0.00,29.4,27.8,00.0,38.2,31.3,29.6,0000.0,0004.58,0003.59,0003.35
2022-07-29 23:09:00,,0829.1,5.00,0.00,29.4,28.0,00.0,38.2,31.3,29.6,0000.0,0004.68,0003.64,0003.40
2022-07-29 23:10:00,,0829.1,5.01,0.00,29.4,28.1,00.0,38.2,31.4,28.8,0000.0,0004.72,0003.69,0003.44
2022-07-29 23:11:00,,0829.1,4.99,0.00,29.5,28.3,00.0,38.2,31.4,28.6,0000.0,0004.77,0003.73,0003.48
2022-07-29 23:12:00,,0829.1,5.02,0.00,29.5,28.4,00.0,38.2,31.5,29.0,0000.0,0004.88,0003.76,0003.52
2022-07-29 23:13:00,,0829.1,4.99,0.00,29.5,28.5,00.0,38.3,31.5,29.4,0000.0,0005.64,0003.81,0003.55
2022-07-29 23:14:00,,0829.2,5.01,0.00,29.6,28.6,00.0,38.3,31.6,29.7,0000.0,0006.47,0003.83,0003.57
2022-07-29 23:15:00,,0829.2,5.00,0.00,29.6,28.3,00.0,38.3,31.5,29.6,0000.0,0007.46,0003.84,0003.59
2022-07-29 23:16:00,,0829.1,5.00,0.00,29.6,27.5,00.0,38.3,31.3,30.2,0000.0,0007.42,0003.83,0003.60
2022-07-29 23:17:00,,0829.1,5.01,0.00,29.5,27.2,00.0,38.2,31.3,30.3,0000.0,0007.41,0003.84,0003.60
2022-07-29 23:18:00,,0829.0,5.00,0.00,29.4,27.1,00.0,38.2,31.2,30.8,0000.0,0007.34,0003.83,0003.61
2022-07-29 23:19:00,,0829.1,5.00,0.00,29.4,27.3,00.0,38.2,31.2,30.6,0000.0,0007.30,0003.82,0003.62
2022-07-29 23:20:00,,0829.1,5.00,0.00,29.4,27.4,00.0,38.2,31.2,30.2,0000.0,0007.35,0003.82,0003.62
2022-07-29 23:21:00,,0829.1,5.00,0.00,29.4,27.6,00.0,38.2,31.3,30.7,0000.0,0007.32,0003.81,0003.62
2022-07-29 23:22:00,,0829.1,5.01,0.00,29.4,27.8,00.0,38.2,31.3,31.1,0000.0,0007.33,0003.81,0003.63
2022-07-29 23:23:00,,0829.2,4.99,0.00,29.4,28.0,00.0,38.2,31.3,30.2,0000.0,0007.31,0003.82,0003.64
2022-07-29 23:24:00,,0829.2,4.99,0.00,29.4,28.1,00.0,38.2,31.4,30.3,0000.0,0006.76,0003.80,0003.66
2022-07-29 23:25:00,,0829.2,4.99,0.00,29.5,28.3,00.0,38.2,31.4,29.9,0000.0,0005.94,0003.81,0003.66
2022-07-29 23:26:00,,0829.3,5.01,0.00,29.5,28.4,00.0,38.2,31.5,30.7,0000.0,0004.66,0003.80,0003.67
2022-07-29 23:27:00,,0829.3,5.00,0.00,29.5,28.5,00.0,38.3,31.5,28.3,0000.0,0004.69,0003.81,0003.68
2022-07-29 23:28:00,,0829.3,4.99,0.00,29.6,28.6,00.0,38.3,31.6,28.5,0000.0,0004.72,0003.83,0003.70
2022-07-29 23:29:00,,0829.3,5.01,0.00,29.6,28.5,00.0,38.3,31.6,27.2,0000.0,0004.64,0003.82,0003.70
2022-07-29 23:30:00,,0829.2,5.00,0.00,29.6,27.9,00.0,38.3,31.4,27.3,0000.0,0004.62,0003.82,0003.70
2022-07-29 23:31:00,,0829.2,4.99,0.00,29.5,27.4,00.0,38.2,31.3,27.0,0000.0,0004.62,0003.84,0003.72
2022-07-29 23:32:00,,0829.3,5.01,0.00,29.5,27.2,00.0,38.2,31.2,26.6,0000.0,0004.84,0003.88,0003.75
2022-07-29 23:33:00,,0829.2,5.00,0.00,29.4,27.3,00.0,38.2,31.2,26.7,0000.0,0005.12,0003.93,0003.78
2022-07-29 23:34:00,,0829.2,5.00,0.00,29.4,27.4,00.0,38.2,31.2,26.7,0000.0,0006.46,0004.02,0003.86
2022-07-29 23:35:00,,0829.2,5.00,0.00,29.4,27.6,00.0,38.2,31.3,27.6,0000.0,0007.07,0004.16,0003.96
2022-07-29 23:36:00,,0829.2,5.00,0.00,29.4,27.8,00.0,38.2,31.3,28.8,0000.0,0007.34,0004.27,0004.05
2022-07-29 23:37:00,,0829.3,5.00,0.00,29.4,27.9,00.0,38.2,31.4,28.6,0000.0,0007.54,0004.35,0004.11
2022-07-29 23:38:00,,0829.2,4.99,0.00,29.4,28.1,00.0,38.2,31.4,27.8,0000.0,0007.67,0004.45,0004.20
2022-07-29 23:39:00,,0829.3,5.00,0.00,29.5,28.2,00.0,38.2,31.5,27.8,0000.0,0007.80,0004.56,0004.29
2022-07-29 23:40:00,,0829.2,5.00,0.00,29.5,28.4,00.0,38.2,31.5,28.3,0000.0,0007.94,0004.66,0004.37
2022-07-29 23:41:00,,0829.2,5.00,0.00,29.5,28.5,00.0,38.3,31.6,28.7,0000.0,0008.09,0004.77,0004.46
2022-07-29 23:42:00,,0829.3,5.00,0.00,29.6,28.5,00.0,38.3,31.6,29.3,0000.0,0008.19,0004.87,0004.54
2022-07-29 23:43:00,,0829.3,5.00,0.00,29.6,28.1,00.0,38.3,31.4,29.6,0000.0,0008.20,0004.92,0004.59
2022-07-29 23:44:00,,0829.3,5.00,0.00,29.5,27.3,00.0,38.2,31.3,29.9,0000.0,0008.19,0004.95,0004.63
2022-07-29 23:45:00,,0829.3,5.01,0.00,29.5,27.1,00.0,38.2,31.2,29.9,0000.0,0007.99,0004.95,0004.63
2022-07-29 23:46:00,,0829.3,4.99,0.00,29.4,27.1,00.0,38.2,31.1,29.7,0000.0,0008.15,0004.93,0004.62
2022-07-29 23:47:00,,0829.3,5.00,0.00,29.3,27.3,00.0,38.2,31.2,29.3,0000.0,0009.07,0004.94,0004.64
2022-07-29 23:48:00,,0829.3,5.00,0.00,29.3,27.4,00.0,38.2,31.2,29.3,0000.0,0009.32,0004.99,0004.69
2022-07-29 23:49:00,,0829.3,5.01,0.00,29.4,27.6,00.0,38.2,31.3,29.6,0000.0,0009.38,0005.03,0004.72
2022-07-29 23:50:00,,0829.3,5.00,0.00,29.4,27.8,00.0,38.2,31.3,30.0,0000.0,0009.36,0005.03,0004.74
2022-07-29 23:51:00,,0829.3,5.01,0.00,29.4,28.0,00.0,38.2,31.4,29.8,0000.0,0009.37,0005.05,0004.76
2022-07-29 23:52:00,,0829.3,5.00,0.00,29.4,28.2,00.0,38.2,31.4,30.1,0000.0,0009.39,0005.07,0004.77
2022-07-29 23:53:00,,0829.3,4.98,0.00,29.5,28.3,00.0,38.2,31.5,29.7,0000.0,0009.44,0005.09,0004.79
2022-07-29 23:54:00,,0829.2,5.00,0.00,29.5,28.4,00.0,38.2,31.5,29.4,0000.0,0009.56,0005.14,0004.83
2022-07-29 23:55:00,,0829.2,5.00,0.00,29.5,28.6,00.0,38.3,31.6,29.2,0000.0,0009.57,0005.18,0004.87
2022-07-29 23:56:00,,0829.3,4.99,0.00,29.6,28.5,00.0,38.3,31.6,29.2,0000.0,0009.11,0005.21,0004.90
2022-07-29 23:57:00,,0829.2,5.00,0.00,29.6,28.0,00.0,38.2,31.5,29.1,0000.0,0008.83,0005.22,0004.93
2022-07-29 23:58:00,,0829.3,4.99,0.00,29.5,27.4,00.0,38.2,31.3,29.6,0000.0,0007.90,0005.26,0004.95
2022-07-29 23:59:00,,0829.3,5.01,0.00,29.5,27.2,00.0,38.2,31.2,29.6,0000.0,0007.77,0005.29,0004.96
